Change the Weather History Date:

Friday, July 26, 2013

  Actual Average Record
Temperature  
Mean Temperature 64 °F 71 °F  
Max Temperature 70 °F 79 °F 94 °F (1892)
Min Temperature 58 °F 62 °F 51 °F (1936)
Degree Days  
Heating Degree Days 1 0  
Month to date heating degree days 7 9  
Since 1 June heating degree days 74 92  
Since 1 July heating degree days 7 9  
Cooling Degree Days 0 6  
Month to date cooling degree days 272 147  
Year to date cooling degree days 399 253  
Since 1 June cooling degree days 375 231  
Growing Degree Days 14 (Base 50)    
Moisture  
Dew Point 59 °F    
Average Humidity 87    
Maximum Humidity 100    
Minimum Humidity 73    
Precipitation  
Precipitation 0.49 in 0.14 in 2.63 in (1900)
Month to date precipitation 2.97 3.51  
Year to date precipitation 29.84 26.93  
Snow  
Snow 0.00 in 0.00 in 0.00 in (2002)
Month to date snowfall 0.0 0.0  
Since 1 June snowfall 0.0 0.0  
Since 1 July snowfall 0.0 0.0  
Snow Depth -    
Sea Level Pressure  
Sea Level Pressure 30.02 in    
Wind  
Wind Speed 12 mph (North)    
Max Wind Speed 18 mph    
Max Gust Speed 24 mph    
Visibility 9 miles    
Events Rain    
T = Trace of Precipitation, MM = Missing Value Source: NWS Daily Summary

Daily Weather History Graph

Daily Weather History Graph

Search for Another Location

Airport or City:

Trip Planner

Search our weather history database for the weather conditions in past years. The results will help you decide how hot, cold, wet, or windy it might be!

Date:

Astronomy

Jul. 26, 2013 Rise Set
Actual Time 5:34 AM EDT 8:12 PM EDT
Civil Twilight 5:02 AM EDT 8:45 PM EDT
Nautical Twilight 4:21 AM EDT 9:25 PM EDT
Astronomical Twilight 3:35 AM EDT 10:11 PM EDT
Moon 10:18 PM EDT (7/26) 10:13 AM EDT (7/26)
Length of Visible Light 15h 43m
Length of Day
14h 38m
Waning Gibbous, 80% of the Moon is Illuminated
Jul 26
Waning Gibbous
Jul 29
Last Quarter
Aug 6
New
Aug 14
First Quarter
Aug 20
Full

Hourly Weather History & Observations

Time (EDT) Temp. Dew Point Humidity Pressure Visibility Wind Dir Wind Speed Gust Speed Precip Events Conditions
12:54 AM 57.9 °F 57.0 °F 97% 30.07 in 10.0 mi NE 8.1 mph - 0.00 in Rain Light Rain
1:54 AM 57.9 °F 57.0 °F 97% 30.07 in 10.0 mi NNE 9.2 mph - 0.02 in Rain Light Rain
2:16 AM 57.9 °F 57.0 °F 97% 30.06 in 10.0 mi NNE 10.4 mph - 0.01 in Rain Light Rain
2:54 AM 57.9 °F 57.0 °F 97% 30.05 in 7.0 mi NNE 10.4 mph - 0.04 in Rain Rain
3:54 AM 57.9 °F 57.0 °F 97% 30.03 in 8.0 mi NNE 12.7 mph 18.4 mph 0.13 in Rain Rain
4:08 AM 57.9 °F 57.0 °F 97% 30.02 in 9.0 mi NNE 10.4 mph - 0.01 in Rain Light Rain
4:44 AM 57.9 °F 57.9 °F 100% 30.02 in 8.0 mi NNE 11.5 mph - 0.04 in Rain Rain
4:54 AM 57.9 °F 57.9 °F 100% 30.03 in 8.0 mi NNE 10.4 mph 18.4 mph 0.06 in Rain Rain
5:06 AM 57.9 °F 57.9 °F 100% 30.02 in 9.0 mi NNE 9.2 mph 18.4 mph 0.01 in Rain Light Rain
5:54 AM 57.9 °F 57.9 °F 100% 30.02 in 8.0 mi NNE 11.5 mph - 0.05 in Rain Rain
6:33 AM 59.0 °F 57.9 °F 96% 30.02 in 4.0 mi NNE 11.5 mph 20.7 mph 0.04 in Rain Rain
6:54 AM 59.0 °F 57.9 °F 96% 30.02 in 6.0 mi NNE 12.7 mph 19.6 mph 0.09 in Rain Rain
7:06 AM 59.0 °F 57.9 °F 96% 30.02 in 7.0 mi North 12.7 mph 21.9 mph 0.02 in Rain Rain
7:54 AM 59.0 °F 57.9 °F 96% 30.02 in 6.0 mi North 13.8 mph 21.9 mph 0.07 in Rain Light Rain
8:54 AM 60.1 °F 59.0 °F 96% 30.01 in 10.0 mi North 13.8 mph 21.9 mph 0.01 in Rain Light Rain
9:54 AM 62.1 °F 59.0 °F 90% 30.01 in 10.0 mi North 11.5 mph - 0.00 in   Overcast
10:01 AM 62.1 °F 59.0 °F 90% 30.01 in 10.0 mi North 13.8 mph 21.9 mph 0.00 in Rain Light Rain
10:54 AM 62.1 °F 60.1 °F 93% 30.01 in 7.0 mi North 11.5 mph - 0.02 in Rain Light Rain
11:54 AM 64.0 °F 60.1 °F 87% 30.00 in 10.0 mi North 12.7 mph 20.7 mph 0.00 in   Overcast
12:26 PM 66.0 °F 61.0 °F 84% 30.00 in 10.0 mi North 10.4 mph 21.9 mph N/A   Overcast
12:54 PM 68.0 °F 61.0 °F 78% 29.99 in 10.0 mi North 15.0 mph 21.9 mph N/A   Mostly Cloudy
1:06 PM 69.1 °F 62.1 °F 78% 29.99 in 10.0 mi NNE 11.5 mph 18.4 mph N/A   Mostly Cloudy
1:54 PM 69.1 °F 61.0 °F 75% 29.99 in 10.0 mi NE 9.2 mph - N/A   Overcast
2:21 PM 69.1 °F 61.0 °F 75% 29.99 in 10.0 mi WNW 11.5 mph - N/A   Overcast
2:54 PM 69.1 °F 62.1 °F 78% 29.99 in 10.0 mi NW 13.8 mph - N/A   Overcast
3:01 PM 70.0 °F 62.1 °F 76% 30.00 in 10.0 mi NW 13.8 mph - N/A   Overcast
3:54 PM 68.0 °F 61.0 °F 78% 29.99 in 10.0 mi WNW 12.7 mph - N/A   Overcast
4:54 PM 66.9 °F 57.9 °F 73% 30.00 in 10.0 mi NW 15.0 mph 23.0 mph N/A   Overcast
5:54 PM 66.0 °F 57.9 °F 75% 30.00 in 10.0 mi WNW 10.4 mph - N/A   Overcast
6:54 PM 66.9 °F 57.9 °F 73% 30.00 in 10.0 mi WNW 15.0 mph - N/A   Mostly Cloudy
7:54 PM 66.0 °F 57.9 °F 75% 30.01 in 10.0 mi WNW 13.8 mph - N/A   Mostly Cloudy
8:54 PM 64.9 °F 57.9 °F 78% 30.01 in 10.0 mi WNW 13.8 mph - 0.00 in   Scattered Clouds
9:54 PM 64.0 °F 57.0 °F 78% 30.03 in 10.0 mi West 8.1 mph - N/A   Clear
10:54 PM 62.1 °F 57.9 °F 86% 30.04 in 10.0 mi West 10.4 mph - N/A   Clear
11:54 PM 61.0 °F 57.9 °F 90% 30.04 in 10.0 mi West 9.2 mph - N/A   Clear